Location: *
(51.0333°S, 178.4667°E)
Time: 19:11:12
(UTC+00:00)

Okean 2 - Pass Details

Date: 15 November 2019
Orbit: 559 x 578 km, 82.5° (Epoch: 14 December)

Event Time Altitude Azimuth Distance (km) Brightness Sun altitude
Rises 10:18:37 0° 187° (S) 2,805 8.4 -17.6°
Reaches altitude 10° 10:20:53 10° 181° (S) 1,902 7.1 -17.8°
Maximum altitude 10:24:58 49° 105° (ESE) 755 3.9 -18.0°
Enters shadow 10:26:16 35° 55° (NE) 937 4.0 -18.1°
